,,,PA_Meas_PMT16A,,PR_Meas_QMR101_102,,RH_Meas_QMH101,,SR_Meas_QMS101,,TA_Meas_QMH101,,GenWind,,GenWind,
date,time,status,PA,status,PR,status,RH,status,SR,status,TA,status,DirAvg,status,SpdAvg,
2011-07-21, 00:00:05,VALID,1009.941,VALID,0.0,VALID,104.0,VALID,0.0,VALID,23.852,VALID,167.0,VALID,0.327,
2011-07-21, 00:01:05,VALID,1009.907,VALID,0.0,VALID,104.0,VALID,0.0,VALID,23.811,VALID,167.0,VALID,0.397,
2011-07-21, 00:02:05,VALID,1009.912,VALID,0.0,VALID,104.0,VALID,0.0,VALID,23.811,VALID,167.0,VALID,0.219,
2011-07-21, 00:03:05,VALID,1009.895,VALID,0.0,VALID,104.0,VALID,0.0,VALID,23.83,VALID,167.0,VALID,0.075,
2011-07-21, 00:04:05,VALID,1009.904,VALID,0.0,VALID,104.0,VALID,0.0,VALID,23.811,VALID,167.0,VALID,0.048,
2011-07-21, 00:05:05,VALID,1009.88,VALID,0.0,VALID,104.0,VALID,0.0,VALID,23.832,VALID,167.0,VALID,0.091,
2011-07-21, 00:06:05,VALID,1009.892,VALID,0.0,VALID,104.0,VALID,0.0,VALID,23.832,VALID,167.0,VALID,0.134,
2011-07-21, 00:07:05,VALID,1009.894,VALID,0.0,VALID,104.0,VALID,0.0,VALID,23.811,VALID,167.0,VALID,0.292,
2011-07-21, 00:08:05,VALID,1009.901,VALID,0.0,VALID,104.0,VALID,0.0,VALID,23.852,VALID,167.0,VALID,0.48,
2011-07-21, 00:09:05,VALID,1009.881,VALID,0.0,VALID,104.0,VALID,0.0,VALID,23.832,VALID,152.0,VALID,0.563,
2011-07-21, 00:10:05,VALID,1009.879,VALID,0.0,VALID,104.0,VALID,0.0,VALID,23.83,VALID,149.0,VALID,0.477,
2011-07-21, 00:11:05,VALID,1009.837,VALID,0.0,VALID,104.0,VALID,0.0,VALID,23.83,VALID,118.0,VALID,0.641,
2011-07-21, 00:12:05,VALID,1009.856,VALID,0.0,VALID,104.0,VALID,0.0,VALID,23.811,VALID,118.0,VALID,0.245,
2011-07-21, 00:13:05,VALID,1009.818,VALID,0.0,VALID,104.0,VALID,0.0,VALID,23.83,VALID,118.0,VALID,0.23,
2011-07-21, 00:14:05,VALID,1009.828,VALID,0.0,VALID,104.0,VALID,0.0,VALID,23.811,VALID,118.0,VALID,0.475,
2011-07-21, 00:15:05,VALID,1009.791,VALID,0.0,VALID,104.0,VALID,0.0,VALID,23.811,VALID,118.0,VALID,0.609,
2011-07-21, 00:16:05,VALID,1009.795,VALID,0.0,VALID,104.0,VALID,0.0,VALID,23.811,VALID,118.0,VALID,0.798,
2011-07-21, 00:17:05,VALID,1009.797,VALID,0.0,VALID,104.0,VALID,0.0,VALID,23.811,VALID,118.0,VALID,0.719,
2011-07-21, 00:18:05,VALID,1009.781,VALID,0.0,VALID,104.0,VALID,0.0,VALID,23.811,VALID,119.0,VALID,0.577,
2011-07-21, 00:19:05,VALID,1009.767,VALID,0.0,VALID,104.0,VALID,0.106,VALID,23.811,VALID,132.0,VALID,0.698,
2011-07-21, 00:20:05,VALID,1009.773,VALID,0.0,VALID,104.0,VALID,0.0,VALID,23.791,VALID,132.0,VALID,0.671,
2011-07-21, 00:21:05,VALID,1009.766,VALID,0.0,VALID,104.0,VALID,0.0,VALID,23.791,VALID,135.0,VALID,0.81,
2011-07-21, 00:22:05,VALID,1009.755,VALID,0.0,VALID,104.0,VALID,0.0,VALID,23.772,VALID,128.0,VALID,0.88,
2011-07-21, 00:23:05,VALID,1009.771,VALID,0.0,VALID,104.0,VALID,0.0,VALID,23.752,VALID,144.0,VALID,1.149,
2011-07-21, 00:24:05,VALID,1009.805,VALID,0.0,VALID,104.0,VALID,0.0,VALID,23.733,VALID,126.0,VALID,0.575,
2011-07-21, 00:25:05,VALID,1009.82,VALID,0.0,VALID,104.0,VALID,0.0,VALID,23.733,VALID,134.0,VALID,0.745,
2011-07-21, 00:26:05,VALID,1009.8,VALID,0.0,VALID,104.0,VALID,0.0,VALID,23.713,VALID,130.0,VALID,0.91,
2011-07-21, 00:27:05,VALID,1009.81,VALID,0.0,VALID,104.0,VALID,0.0,VALID,23.694,VALID,131.0,VALID,0.846,
2011-07-21, 00:28:05,VALID,1009.819,VALID,0.0,VALID,104.0,VALID,0.0,VALID,23.675,VALID,131.0,VALID,0.827,
2011-07-21, 00:29:05,VALID,1009.804,VALID,0.0,VALID,104.0,VALID,0.0,VALID,23.675,VALID,123.0,VALID,0.971,
2011-07-21, 00:30:05,VALID,1009.8,VALID,0.0,VALID,104.0,VALID,0.0,VALID,23.655,VALID,112.0,VALID,0.891,
2011-07-21, 00:31:05,VALID,1009.771,VALID,0.0,VALID,104.0,VALID,0.0,VALID,23.636,VALID,114.0,VALID,1.106,
2011-07-21, 00:32:05,VALID,1009.765,VALID,0.0,VALID,104.0,VALID,0.0,VALID,23.616,VALID,112.0,VALID,0.844,
2011-07-21, 00:33:05,VALID,1009.764,VALID,0.0,VALID,104.0,VALID,0.0,VALID,23.616,VALID,131.0,VALID,0.417,
2011-07-21, 00:34:05,VALID,1009.766,VALID,0.0,VALID,104.0,VALID,0.0,VALID,23.597,VALID,131.0,VALID,0.479,
2011-07-21, 00:35:05,VALID,1009.751,VALID,0.0,VALID,104.0,VALID,0.106,VALID,23.577,VALID,151.0,VALID,1.134,
2011-07-21, 00:36:05,VALID,1009.722,VALID,0.0,VALID,104.0,VALID,0.0,VALID,23.538,VALID,139.0,VALID,0.954,
2011-07-21, 00:37:05,VALID,1009.742,VALID,0.0,VALID,104.0,VALID,0.0,VALID,23.54,VALID,164.0,VALID,0.698,
2011-07-21, 00:38:05,VALID,1009.714,VALID,0.0,VALID,104.0,VALID,0.0,VALID,23.519,VALID,145.0,VALID,0.555,
2011-07-21, 00:39:05,VALID,1009.73,VALID,0.0,VALID,104.0,VALID,0.0,VALID,23.499,VALID,145.0,VALID,0.498,
2011-07-21, 00:40:05,VALID,1009.698,VALID,0.0,VALID,104.0,VALID,0.0,VALID,23.499,VALID,145.0,VALID,0.338,
2011-07-21, 00:41:05,VALID,1009.697,VALID,0.0,VALID,104.0,VALID,0.0,VALID,23.52,VALID,145.0,VALID,0.148,
2011-07-21, 00:42:05,VALID,1009.663,VALID,0.0,VALID,104.0,VALID,0.0,VALID,23.48,VALID,145.0,VALID,0.39,
2011-07-21, 00:43:05,VALID,1009.657,VALID,0.0,VALID,104.0,VALID,0.0,VALID,23.46,VALID,145.0,VALID,0.319,
2011-07-21, 00:44:05,VALID,1009.638,VALID,0.0,VALID,104.0,VALID,0.106,VALID,23.46,VALID,145.0,VALID,0.423,
2011-07-21, 00:45:05,VALID,1009.648,VALID,0.0,VALID,104.0,VALID,0.0,VALID,23.419,VALID,145.0,VALID,0.301,
2011-07-21, 00:46:05,VALID,1009.638,VALID,0.0,VALID,104.0,VALID,0.0,VALID,23.421,VALID,145.0,VALID,0.097,
2011-07-21, 00:47:05,VALID,1009.634,VALID,0.0,VALID,104.0,VALID,0.0,VALID,23.441,VALID,145.0,VALID,0.0,
2011-07-21, 00:48:05,VALID,1009.63,VALID,0.0,VALID,104.0,VALID,0.0,VALID,23.462,VALID,145.0,VALID,0.0,
2011-07-21, 00:49:05,VALID,1009.61,VALID,0.0,VALID,104.0,VALID,0.0,VALID,23.421,VALID,145.0,VALID,0.131,
2011-07-21, 00:50:05,VALID,1009.632,VALID,0.0,VALID,104.0,VALID,0.0,VALID,23.421,VALID,145.0,VALID,0.45,
2011-07-21, 00:51:05,VALID,1009.603,VALID,0.0,VALID,104.0,VALID,0.0,VALID,23.402,VALID,115.0,VALID,0.395,
2011-07-21, 00:52:05,VALID,1009.581,VALID,0.0,VALID,104.0,VALID,0.0,VALID,23.402,VALID,115.0,VALID,0.161,
2011-07-21, 00:53:05,VALID,1009.603,VALID,0.0,VALID,104.0,VALID,0.0,VALID,23.402,VALID,115.0,VALID,0.409,
2011-07-21, 00:54:05,VALID,1009.61,VALID,0.0,VALID,104.0,VALID,0.0,VALID,23.382,VALID,117.0,VALID,0.591,
2011-07-21, 00:55:05,VALID,1009.568,VALID,0.0,VALID,104.0,VALID,0.0,VALID,23.363,VALID,117.0,VALID,0.652,
2011-07-21, 00:56:05,VALID,1009.586,VALID,0.0,VALID,104.0,VALID,0.0,VALID,23.382,VALID,118.0,VALID,0.624,
2011-07-21, 00:57:05,VALID,1009.581,VALID,0.0,VALID,104.0,VALID,0.0,VALID,23.343,VALID,115.0,VALID,0.743,
2011-07-21, 00:58:05,VALID,1009.554,VALID,0.0,VALID,104.0,VALID,0.0,VALID,23.343,VALID,130.0,VALID,1.18,
2011-07-21, 00:59:05,VALID,1009.533,VALID,0.0,VALID,104.0,VALID,0.0,VALID,23.324,VALID,126.0,VALID,1.066,
2011-07-21, 01:00:05,VALID,1009.494,VALID,0.0,VALID,104.0,VALID,0.0,VALID,23.324,VALID,124.0,VALID,0.879,
2011-07-21, 01:01:05,VALID,1009.48,VALID,0.0,VALID,104.0,VALID,0.0,VALID,23.345,VALID,121.0,VALID,0.696,
2011-07-21, 01:02:05,VALID,1009.475,VALID,0.0,VALID,104.0,VALID,0.0,VALID,23.304,VALID,114.0,VALID,0.537,
2011-07-21, 01:03:05,VALID,1009.445,VALID,0.0,VALID,104.0,VALID,0.0,VALID,23.304,VALID,129.0,VALID,0.708,
2011-07-21, 01:04:05,VALID,1009.463,VALID,0.0,VALID,104.0,VALID,0.0,VALID,23.285,VALID,128.0,VALID,0.607,
2011-07-21, 01:05:05,VALID,1009.438,VALID,0.0,VALID,104.0,VALID,0.0,VALID,23.285,VALID,106.0,VALID,1.078,
2011-07-21, 01:06:05,VALID,1009.436,VALID,0.0,VALID,104.0,VALID,0.106,VALID,23.265,VALID,109.0,VALID,1.152,
2011-07-21, 01:07:05,VALID,1009.416,VALID,0.0,VALID,104.0,VALID,0.0,VALID,23.228,VALID,116.0,VALID,1.297,
2011-07-21, 01:08:05,VALID,1009.429,VALID,0.0,VALID,104.0,VALID,0.0,VALID,23.207,VALID,128.0,VALID,1.102,
2011-07-21, 01:09:04,VALID,1009.392,VALID,0.0,VALID,104.0,VALID,0.106,VALID,23.187,VALID,102.0,VALID,0.854,
2011-07-21, 01:10:04,VALID,1009.414,VALID,0.0,VALID,104.0,VALID,0.0,VALID,23.187,VALID,117.0,VALID,0.487,
2011-07-21, 01:11:04,VALID,1009.384,VALID,0.0,VALID,104.0,VALID,0.0,VALID,23.187,VALID,117.0,VALID,0.33,
2011-07-21, 01:12:04,VALID,1009.363,VALID,0.0,VALID,104.0,VALID,0.0,VALID,23.187,VALID,118.0,VALID,0.105,
2011-07-21, 01:13:04,VALID,1009.339,VALID,0.0,VALID,104.0,VALID,0.0,VALID,23.187,VALID,118.0,VALID,0.12,
2011-07-21, 01:14:04,VALID,1009.346,VALID,0.0,VALID,104.0,VALID,0.0,VALID,23.168,VALID,118.0,VALID,0.238,
2011-07-21, 01:15:04,VALID,1009.316,VALID,0.0,VALID,104.0,VALID,0.0,VALID,23.148,VALID,106.0,VALID,0.648,
2011-07-21, 01:16:04,VALID,1009.339,VALID,0.0,VALID,104.0,VALID,0.0,VALID,23.129,VALID,75.0,VALID,1.066,
2011-07-21, 01:17:04,VALID,1009.316,VALID,0.0,VALID,104.0,VALID,0.0,VALID,23.148,VALID,85.0,VALID,0.534,
2011-07-21, 01:18:04,VALID,1009.324,VALID,0.0,VALID,104.0,VALID,0.0,VALID,23.148,VALID,85.0,VALID,0.314,
2011-07-21, 01:19:04,VALID,1009.325,VALID,0.0,VALID,104.0,VALID,0.0,VALID,23.17,VALID,79.0,VALID,0.874,
2011-07-21, 01:20:04,VALID,1009.303,VALID,0.0,VALID,104.0,VALID,0.0,VALID,23.168,VALID,95.0,VALID,0.67,
2011-07-21, 01:21:04,VALID,1009.307,VALID,0.0,VALID,104.0,VALID,0.0,VALID,23.148,VALID,79.0,VALID,0.84,
2011-07-21, 01:22:04,VALID,1009.31,VALID,0.0,VALID,103.931,VALID,0.0,VALID,23.187,VALID,76.0,VALID,0.759,
2011-07-21, 01:23:04,VALID,1009.25,VALID,0.0,VALID,103.695,VALID,0.0,VALID,23.148,VALID,102.0,VALID,1.205,
2011-07-21, 01:24:04,VALID,1009.227,VALID,0.0,VALID,103.611,VALID,0.0,VALID,23.168,VALID,75.0,VALID,0.489,
2011-07-21, 01:25:04,VALID,1009.182,VALID,0.0,VALID,103.596,VALID,0.0,VALID,23.168,VALID,73.0,VALID,0.437,
2011-07-21, 01:26:04,VALID,1009.175,VALID,0.0,VALID,103.634,VALID,0.0,VALID,23.168,VALID,120.0,VALID,0.846,
2011-07-21, 01:27:04,VALID,1009.16,VALID,0.0,VALID,103.626,VALID,0.0,VALID,23.148,VALID,120.0,VALID,0.549,
2011-07-21, 01:28:04,VALID,1009.179,VALID,0.0,VALID,103.718,VALID,0.0,VALID,23.168,VALID,107.0,VALID,0.393,
2011-07-21, 01:29:04,VALID,1009.186,VALID,0.0,VALID,103.787,VALID,0.0,VALID,23.187,VALID,77.0,VALID,0.417,
2011-07-21, 01:30:04,VALID,1009.168,VALID,0.0,VALID,103.878,VALID,0.0,VALID,23.168,VALID,78.0,VALID,0.552,
2011-07-21, 01:31:04,VALID,1009.186,VALID,0.0,VALID,103.931,VALID,0.0,VALID,23.148,VALID,104.0,VALID,0.807,
2011-07-21, 01:32:04,VALID,1009.164,VALID,0.0,VALID,103.863,VALID,0.0,VALID,23.129,VALID,102.0,VALID,1.293,
2011-07-21, 01:33:04,VALID,1009.185,VALID,0.0,VALID,103.802,VALID,0.0,VALID,23.148,VALID,99.0,VALID,1.032,
2011-07-21, 01:34:04,VALID,1009.176,VALID,0.0,VALID,103.726,VALID,0.106,VALID,23.147,VALID,87.0,VALID,1.404,
2011-07-21, 01:35:04,VALID,1009.137,VALID,0.0,VALID,103.687,VALID,0.0,VALID,23.168,VALID,119.0,VALID,1.435,
2011-07-21, 01:36:04,VALID,1009.144,VALID,0.0,VALID,103.657,VALID,0.106,VALID,23.168,VALID,82.0,VALID,1.277,
2011-07-21, 01:37:04,VALID,1009.122,VALID,0.0,VALID,103.695,VALID,0.0,VALID,23.168,VALID,93.0,VALID,1.058,
2011-07-21, 01:38:04,VALID,1009.127,VALID,0.0,VALID,103.756,VALID,0.0,VALID,23.148,VALID,98.0,VALID,0.924,
2011-07-21, 01:39:04,VALID,1009.119,VALID,0.0,VALID,103.779,VALID,0.106,VALID,23.129,VALID,97.0,VALID,1.518,
2011-07-21, 01:40:04,VALID,1009.09,VALID,0.0,VALID,103.825,VALID,0.0,VALID,23.088,VALID,104.0,VALID,0.625,
2011-07-21, 01:41:04,VALID,1009.114,VALID,0.0,VALID,103.878,VALID,0.0,VALID,23.109,VALID,130.0,VALID,1.283,
2011-07-21, 01:42:04,VALID,1009.095,VALID,0.0,VALID,103.878,VALID,0.0,VALID,23.071,VALID,122.0,VALID,1.441,
2011-07-21, 01:43:04,VALID,1009.087,VALID,0.0,VALID,103.931,VALID,0.0,VALID,23.071,VALID,120.0,VALID,1.186,
2011-07-21, 01:44:04,VALID,1009.066,VALID,0.0,VALID,103.939,VALID,0.0,VALID,23.03,VALID,110.0,VALID,1.18,
2011-07-21, 01:45:04,VALID,1009.068,VALID,0.0,VALID,103.985,VALID,0.106,VALID,23.01,VALID,112.0,VALID,0.977,
2011-07-21, 01:46:04,VALID,1009.065,VALID,0.0,VALID,104.0,VALID,0.0,VALID,23.012,VALID,124.0,VALID,1.109,
2011-07-21, 01:47:04,VALID,1009.077,VALID,0.0,VALID,104.0,VALID,0.0,VALID,23.012,VALID,100.0,VALID,0.735,
2011-07-21, 01:48:04,VALID,1009.082,VALID,0.0,VALID,104.0,VALID,0.0,VALID,22.993,VALID,104.0,VALID,1.3,
2011-07-21, 01:49:04,VALID,1009.082,VALID,0.0,VALID,104.0,VALID,0.0,VALID,22.973,VALID,137.0,VALID,1.207,
2011-07-21, 01:50:04,VALID,1009.07,VALID,0.0,VALID,104.0,VALID,0.106,VALID,22.973,VALID,118.0,VALID,1.179,
2011-07-21, 01:51:04,VALID,1009.085,VALID,0.0,VALID,104.0,VALID,0.0,VALID,22.973,VALID,118.0,VALID,1.234,
2011-07-21, 01:52:04,VALID,1009.088,VALID,0.0,VALID,104.0,VALID,0.0,VALID,22.973,VALID,122.0,VALID,0.904,
2011-07-21, 01:53:04,VALID,1009.091,VALID,0.0,VALID,104.0,VALID,0.0,VALID,22.954,VALID,130.0,VALID,1.165,
2011-07-21, 01:54:04,VALID,1009.085,VALID,0.0,VALID,104.0,VALID,0.0,VALID,22.973,VALID,108.0,VALID,0.914,
2011-07-21, 01:55:04,VALID,1009.072,VALID,0.0,VALID,104.0,VALID,0.0,VALID,22.932,VALID,128.0,VALID,1.099,
2011-07-21, 01:56:04,VALID,1009.085,VALID,0.0,VALID,104.0,VALID,0.106,VALID,22.954,VALID,123.0,VALID,0.562,
2011-07-21, 01:57:04,VALID,1009.07,VALID,0.0,VALID,104.0,VALID,0.0,VALID,22.932,VALID,114.0,VALID,0.916,
2011-07-21, 01:58:04,VALID,1009.09,VALID,0.0,VALID,104.0,VALID,0.106,VALID,22.952,VALID,124.0,VALID,0.784,
2011-07-21, 01:59:04,VALID,1009.091,VALID,0.0,VALID,104.0,VALID,0.106,VALID,22.934,VALID,123.0,VALID,1.084,
2011-07-21, 02:00:04,VALID,1009.11,VALID,0.0,VALID,104.0,VALID,0.106,VALID,22.954,VALID,116.0,VALID,1.011,
2011-07-21, 02:01:04,VALID,1009.145,VALID,0.0,VALID,104.0,VALID,0.0,VALID,22.973,VALID,125.0,VALID,0.765,
2011-07-21, 02:02:04,VALID,1009.161,VALID,0.0,VALID,104.0,VALID,0.0,VALID,22.954,VALID,131.0,VALID,1.257,
2011-07-21, 02:03:04,VALID,1009.169,VALID,0.0,VALID,104.0,VALID,0.0,VALID,22.954,VALID,114.0,VALID,1.095,
2011-07-21, 02:04:04,VALID,1009.19,VALID,0.0,VALID,104.0,VALID,0.0,VALID,22.954,VALID,107.0,VALID,0.582,
2011-07-21, 02:05:04,VALID,1009.221,VALID,0.0,VALID,104.0,VALID,0.0,VALID,22.975,VALID,129.0,VALID,0.871,
2011-07-21, 02:06:04,VALID,1009.258,VALID,0.0,VALID,104.0,VALID,0.0,VALID,22.954,VALID,108.0,VALID,1.346,
2011-07-21, 02:07:04,VALID,1009.273,VALID,0.0,VALID,104.0,VALID,0.0,VALID,22.954,VALID,60.0,VALID,0.897,
2011-07-21, 02:08:04,VALID,1009.271,VALID,0.0,VALID,104.0,VALID,0.0,VALID,22.954,VALID,75.0,VALID,0.352,
2011-07-21, 02:09:04,VALID,1009.273,VALID,0.0,VALID,104.0,VALID,0.0,VALID,22.973,VALID,61.0,VALID,1.055,
2011-07-21, 02:10:04,VALID,1009.303,VALID,0.0,VALID,104.0,VALID,0.0,VALID,22.973,VALID,79.0,VALID,1.194,
2011-07-21, 02:11:04,VALID,1009.319,VALID,0.0,VALID,104.0,VALID,0.0,VALID,22.993,VALID,87.0,VALID,0.876,
2011-07-21, 02:12:04,VALID,1009.325,VALID,0.0,VALID,104.0,VALID,0.0,VALID,23.014,VALID,86.0,VALID,0.477,
2011-07-21, 02:13:04,VALID,1009.299,VALID,0.0,VALID,104.0,VALID,0.0,VALID,23.012,VALID,85.0,VALID,0.188,
2011-07-21, 02:14:04,VALID,1009.319,VALID,0.0,VALID,104.0,VALID,0.0,VALID,23.012,VALID,100.0,VALID,0.683,
2011-07-21, 02:15:04,VALID,1009.277,VALID,0.0,VALID,103.985,VALID,0.0,VALID,23.012,VALID,103.0,VALID,0.808,
2011-07-21, 02:16:04,VALID,1009.266,VALID,0.0,VALID,103.985,VALID,0.0,VALID,23.032,VALID,106.0,VALID,0.836,
2011-07-21, 02:17:04,VALID,1009.226,VALID,0.0,VALID,103.947,VALID,0.0,VALID,23.032,VALID,125.0,VALID,1.377,
2011-07-21, 02:18:04,VALID,1009.185,VALID,0.0,VALID,103.855,VALID,0.0,VALID,23.032,VALID,92.0,VALID,1.158,
2011-07-21, 02:19:04,VALID,1009.166,VALID,0.0,VALID,103.832,VALID,0.0,VALID,23.032,VALID,121.0,VALID,0.684,
2011-07-21, 02:20:04,VALID,1009.143,VALID,0.0,VALID,103.787,VALID,0.0,VALID,23.032,VALID,127.0,VALID,1.235,
2011-07-21, 02:21:04,VALID,1009.125,VALID,0.0,VALID,103.726,VALID,0.0,VALID,23.032,VALID,133.0,VALID,1.586,
2011-07-21, 02:22:04,VALID,1009.134,VALID,0.0,VALID,103.657,VALID,0.0,VALID,23.012,VALID,131.0,VALID,1.335,
2011-07-21, 02:23:04,VALID,1009.137,VALID,0.0,VALID,103.634,VALID,0.0,VALID,22.973,VALID,113.0,VALID,0.991,
2011-07-21, 02:24:04,VALID,1009.156,VALID,0.0,VALID,103.71,VALID,0.0,VALID,22.973,VALID,124.0,VALID,0.262,
2011-07-21, 02:25:04,VALID,1009.144,VALID,0.0,VALID,103.764,VALID,0.0,VALID,22.973,VALID,124.0,VALID,0.282,
2011-07-21, 02:26:04,VALID,1009.18,VALID,0.0,VALID,103.809,VALID,0.0,VALID,22.973,VALID,95.0,VALID,0.793,
2011-07-21, 02:27:04,VALID,1009.212,VALID,0.0,VALID,103.802,VALID,0.0,VALID,22.954,VALID,111.0,VALID,0.549,
2011-07-21, 02:28:04,VALID,1009.201,VALID,0.0,VALID,103.832,VALID,0.0,VALID,22.954,VALID,115.0,VALID,0.585,
2011-07-21, 02:29:04,VALID,1009.166,VALID,0.0,VALID,103.863,VALID,0.0,VALID,22.954,VALID,115.0,VALID,0.866,
2011-07-21, 02:30:04,VALID,1009.185,VALID,0.0,VALID,103.848,VALID,0.0,VALID,22.954,VALID,116.0,VALID,0.347,
2011-07-21, 02:31:04,VALID,1009.169,VALID,0.0,VALID,103.878,VALID,0.0,VALID,22.934,VALID,116.0,VALID,0.384,
2011-07-21, 02:32:04,VALID,1009.184,VALID,0.0,VALID,103.87,VALID,0.0,VALID,22.934,VALID,117.0,VALID,0.345,
2011-07-21, 02:33:04,VALID,1009.166,VALID,0.0,VALID,103.855,VALID,0.0,VALID,22.936,VALID,136.0,VALID,0.545,
2011-07-21, 02:34:04,VALID,1009.145,VALID,0.0,VALID,103.825,VALID,0.0,VALID,22.915,VALID,139.0,VALID,0.45,
2011-07-21, 02:35:04,VALID,1009.151,VALID,0.0,VALID,103.802,VALID,0.0,VALID,22.915,VALID,139.0,VALID,0.429,
2011-07-21, 02:36:04,VALID,1009.143,VALID,0.0,VALID,103.794,VALID,0.0,VALID,22.915,VALID,139.0,VALID,0.352,
2011-07-21, 02:37:04,VALID,1009.115,VALID,0.0,VALID,103.809,VALID,0.106,VALID,22.915,VALID,139.0,VALID,0.327,
2011-07-21, 02:38:04,VALID,1009.121,VALID,0.0,VALID,103.779,VALID,0.0,VALID,22.915,VALID,109.0,VALID,0.796,
2011-07-21, 02:39:04,VALID,1009.102,VALID,0.0,VALID,103.764,VALID,0.106,VALID,22.915,VALID,125.0,VALID,0.492,
2011-07-21, 02:40:04,VALID,1009.074,VALID,0.0,VALID,103.726,VALID,0.0,VALID,22.915,VALID,113.0,VALID,0.616,
2011-07-21, 02:41:04,VALID,1009.046,VALID,0.0,VALID,103.68,VALID,0.0,VALID,22.936,VALID,112.0,VALID,0.409,
2011-07-21, 02:42:04,VALID,1009.056,VALID,0.0,VALID,103.649,VALID,0.0,VALID,22.934,VALID,115.0,VALID,0.37,
2011-07-21, 02:43:04,VALID,1009.044,VALID,0.0,VALID,103.611,VALID,0.0,VALID,22.955,VALID,115.0,VALID,0.51,
2011-07-21, 02:44:04,VALID,1009.005,VALID,0.0,VALID,103.573,VALID,0.106,VALID,22.934,VALID,115.0,VALID,0.41,
2011-07-21, 02:45:04,VALID,1009.024,VALID,0.0,VALID,103.535,VALID,0.106,VALID,22.934,VALID,160.0,VALID,0.717,
2011-07-21, 02:46:04,VALID,1008.975,VALID,0.0,VALID,103.474,VALID,0.0,VALID,22.934,VALID,160.0,VALID,0.582,
2011-07-21, 02:47:04,VALID,1008.984,VALID,0.0,VALID,103.314,VALID,0.0,VALID,22.915,VALID,146.0,VALID,0.609,
2011-07-21, 02:48:04,VALID,1008.966,VALID,0.0,VALID,103.154,VALID,0.106,VALID,22.934,VALID,137.0,VALID,0.636,
2011-07-21, 02:49:04,VALID,1008.937,VALID,0.0,VALID,103.108,VALID,0.0,VALID,22.915,VALID,136.0,VALID,0.528,
2011-07-21, 02:50:04,VALID,1008.929,VALID,0.0,VALID,103.039,VALID,0.0,VALID,22.915,VALID,135.0,VALID,0.898,
2011-07-21, 02:51:04,VALID,1008.923,VALID,0.0,VALID,102.879,VALID,0.106,VALID,22.915,VALID,139.0,VALID,0.635,
2011-07-21, 02:52:04,VALID,1008.9,VALID,0.0,VALID,102.788,VALID,0.0,VALID,22.915,VALID,135.0,VALID,0.878,
2011-07-21, 02:53:04,VALID,1008.901,VALID,0.0,VALID,102.65,VALID,0.106,VALID,22.934,VALID,125.0,VALID,0.787,
2011-07-21, 02:54:04,VALID,1008.899,VALID,0.0,VALID,102.566,VALID,0.106,VALID,22.934,VALID,141.0,VALID,0.68,
2011-07-21, 02:55:04,VALID,1008.899,VALID,0.0,VALID,102.605,VALID,0.0,VALID,22.934,VALID,141.0,VALID,0.413,
2011-07-21, 02:56:04,VALID,1008.942,VALID,0.0,VALID,102.559,VALID,0.106,VALID,22.915,VALID,141.0,VALID,0.448,
2011-07-21, 02:57:04,VALID,1008.893,VALID,0.0,VALID,102.498,VALID,0.0,VALID,22.915,VALID,116.0,VALID,0.802,
2011-07-21, 02:58:04,VALID,1008.933,VALID,0.0,VALID,102.383,VALID,0.0,VALID,22.934,VALID,132.0,VALID,0.41,
2011-07-21, 02:59:04,VALID,1008.937,VALID,0.0,VALID,102.322,VALID,0.0,VALID,22.934,VALID,117.0,VALID,0.423,
2011-07-21, 03:00:04,VALID,1008.946,VALID,0.0,VALID,102.368,VALID,0.0,VALID,22.934,VALID,117.0,VALID,0.504,
2011-07-21, 03:01:04,VALID,1008.955,VALID,0.0,VALID,102.406,VALID,0.0,VALID,22.915,VALID,123.0,VALID,0.538,
2011-07-21, 03:02:04,VALID,1008.958,VALID,0.0,VALID,102.299,VALID,0.106,VALID,22.915,VALID,135.0,VALID,0.568,
2011-07-21, 03:03:04,VALID,1008.959,VALID,0.0,VALID,102.307,VALID,0.106,VALID,22.915,VALID,140.0,VALID,0.628,
2011-07-21, 03:04:04,VALID,1008.953,VALID,0.0,VALID,102.292,VALID,0.106,VALID,22.915,VALID,140.0,VALID,0.731,
2011-07-21, 03:05:04,VALID,1008.974,VALID,0.0,VALID,102.299,VALID,0.0,VALID,22.895,VALID,140.0,VALID,0.689,
2011-07-21, 03:06:04,VALID,1008.968,VALID,0.0,VALID,102.353,VALID,0.0,VALID,22.915,VALID,142.0,VALID,0.602,
2011-07-21, 03:07:04,VALID,1009.002,VALID,0.0,VALID,102.383,VALID,0.0,VALID,22.895,VALID,145.0,VALID,0.587,
2011-07-21, 03:08:04,VALID,1008.991,VALID,0.0,VALID,102.452,VALID,0.0,VALID,22.897,VALID,122.0,VALID,0.852,
2011-07-21, 03:09:04,VALID,1008.972,VALID,0.0,VALID,102.498,VALID,0.0,VALID,22.876,VALID,134.0,VALID,0.764,
2011-07-21, 03:10:04,VALID,1008.984,VALID,0.0,VALID,102.437,VALID,0.106,VALID,22.856,VALID,155.0,VALID,0.791,
2011-07-21, 03:11:04,VALID,1008.977,VALID,0.0,VALID,102.444,VALID,0.0,VALID,22.877,VALID,162.0,VALID,0.587,
2011-07-21, 03:12:04,VALID,1008.952,VALID,0.0,VALID,102.429,VALID,0.0,VALID,22.856,VALID,126.0,VALID,1.038,
2011-07-21, 03:13:04,VALID,1008.938,VALID,0.0,VALID,102.452,VALID,0.0,VALID,22.856,VALID,143.0,VALID,0.686,
2011-07-21, 03:14:04,VALID,1008.942,VALID,0.0,VALID,102.475,VALID,0.0,VALID,22.877,VALID,124.0,VALID,0.831,
2011-07-21, 03:15:04,VALID,1008.928,VALID,0.0,VALID,102.49,VALID,0.0,VALID,22.856,VALID,123.0,VALID,0.575,
2011-07-21, 03:16:04,VALID,1008.913,VALID,0.0,VALID,102.528,VALID,0.0,VALID,22.837,VALID,125.0,VALID,0.614,
2011-07-21, 03:17:04,VALID,1008.914,VALID,0.0,VALID,102.62,VALID,0.0,VALID,22.856,VALID,125.0,VALID,0.488,
2011-07-21, 03:18:04,VALID,1008.893,VALID,0.0,VALID,102.666,VALID,0.0,VALID,22.817,VALID,144.0,VALID,0.764,
2011-07-21, 03:19:04,VALID,1008.903,VALID,0.0,VALID,102.688,VALID,0.0,VALID,22.837,VALID,144.0,VALID,0.397,
2011-07-21, 03:20:04,VALID,1008.918,VALID,0.0,VALID,102.696,VALID,0.0,VALID,22.817,VALID,142.0,VALID,0.876,
2011-07-21, 03:21:04,VALID,1008.901,VALID,0.0,VALID,102.627,VALID,0.0,VALID,22.837,VALID,132.0,VALID,0.622,
2011-07-21, 03:22:04,VALID,1008.908,VALID,0.0,VALID,102.612,VALID,0.0,VALID,22.817,VALID,125.0,VALID,0.663,
2011-07-21, 03:23:04,VALID,1008.891,VALID,0.0,VALID,102.559,VALID,0.106,VALID,22.837,VALID,129.0,VALID,0.567,
2011-07-21, 03:24:04,VALID,1008.893,VALID,0.0,VALID,102.559,VALID,0.106,VALID,22.837,VALID,119.0,VALID,0.207,
2011-07-21, 03:25:04,VALID,1008.849,VALID,0.0,VALID,102.536,VALID,0.106,VALID,22.837,VALID,102.0,VALID,0.791,
2011-07-21, 03:26:04,VALID,1008.848,VALID,0.0,VALID,102.49,VALID,0.0,VALID,22.837,VALID,99.0,VALID,0.656,
2011-07-21, 03:27:04,VALID,1008.834,VALID,0.0,VALID,102.421,VALID,0.106,VALID,22.837,VALID,97.0,VALID,0.45,
2011-07-21, 03:28:04,VALID,1008.83,VALID,0.0,VALID,102.414,VALID,0.0,VALID,22.877,VALID,97.0,VALID,0.445,
2011-07-21, 03:29:04,VALID,1008.836,VALID,0.0,VALID,102.414,VALID,0.0,VALID,22.837,VALID,97.0,VALID,0.395,
2011-07-21, 03:30:04,VALID,1008.847,VALID,0.0,VALID,102.452,VALID,0.0,VALID,22.856,VALID,97.0,VALID,0.16,
2011-07-21, 03:31:04,VALID,1008.834,VALID,0.0,VALID,102.551,VALID,0.0,VALID,22.856,VALID,97.0,VALID,0.36,
2011-07-21, 03:32:04,VALID,1008.858,VALID,0.0,VALID,102.666,VALID,0.106,VALID,22.835,VALID,97.0,VALID,0.189,
2011-07-21, 03:33:04,VALID,1008.914,VALID,0.0,VALID,102.757,VALID,0.0,VALID,22.837,VALID,97.0,VALID,0.351,
2011-07-21, 03:34:04,VALID,1008.929,VALID,0.0,VALID,102.841,VALID,0.106,VALID,22.817,VALID,97.0,VALID,0.396,
2011-07-21, 03:35:04,VALID,1008.968,VALID,0.0,VALID,102.986,VALID,0.106,VALID,22.778,VALID,97.0,VALID,0.251,
2011-07-21, 03:36:04,VALID,1009.019,VALID,0.0,VALID,103.146,VALID,0.106,VALID,22.738,VALID,95.0,VALID,0.476,
2011-07-21, 03:37:04,VALID,1009.056,VALID,0.0,VALID,103.245,VALID,0.106,VALID,22.739,VALID,94.0,VALID,0.162,
2011-07-21, 03:38:04,VALID,1009.071,VALID,0.0,VALID,103.314,VALID,0.106,VALID,22.739,VALID,94.0,VALID,0.205,
2011-07-21, 03:39:04,VALID,1009.116,VALID,0.0,VALID,103.39,VALID,0.106,VALID,22.72,VALID,94.0,VALID,0.207,